Time,TemperatureF,DewpointF,PressureIn,WindDirection,WindDirectionDegrees,WindSpeedMPH,WindSpeedGustMPH,Humidity,HourlyPrecipIn,Conditions,Clouds,dailyrainin,SoftwareType,DateUTC
2013-07-24 00:01:00,66.0,63.0,29.95,NE,51,3.0,5.0,91,0.00,,,0.00,,2013-07-24 04:01:00,
2013-07-24 00:11:00,66.0,63.0,29.95,NE,51,3.0,5.0,91,0.00,,,0.00,,2013-07-24 04:11:00,
2013-07-24 00:22:00,65.0,63.0,29.95,NE,56,1.0,5.0,92,0.00,,,0.00,,2013-07-24 04:22:00,
2013-07-24 00:43:00,65.0,63.0,29.95,NE,37,4.0,4.0,92,0.00,,,0.00,,2013-07-24 04:43:00,
2013-07-24 00:52:00,65.0,63.0,29.95,NE,37,4.0,4.0,92,0.00,,,0.00,,2013-07-24 04:52:00,
2013-07-24 01:02:00,65.0,63.0,29.95,NE,37,2.0,5.0,92,0.00,,,0.00,,2013-07-24 05:02:00,
2013-07-24 01:11:00,65.0,63.0,29.95,NE,37,2.0,5.0,92,0.00,,,0.00,,2013-07-24 05:11:00,
2013-07-24 01:22:00,65.0,63.0,29.94,NNE,32,2.0,5.0,92,0.00,,,0.00,,2013-07-24 05:22:00,
2013-07-24 01:33:00,65.0,63.0,29.94,NE,37,4.0,6.0,93,0.00,,,0.00,,2013-07-24 05:33:00,
2013-07-24 01:52:00,65.0,63.0,29.93,NE,37,4.0,7.0,93,0.00,,,0.00,,2013-07-24 05:52:00,
2013-07-24 02:01:00,65.0,63.0,29.92,NNE,32,3.0,6.0,93,0.00,,,0.00,,2013-07-24 06:01:00,
2013-07-24 02:12:00,65.0,63.0,29.92,NNE,32,3.0,6.0,93,0.00,,,0.00,,2013-07-24 06:12:00,
2013-07-24 02:24:00,65.0,63.0,29.93,NNE,19,3.0,7.0,92,0.00,,,0.00,,2013-07-24 06:24:00,
2013-07-24 02:34:00,65.0,63.0,29.92,NE,39,4.0,7.0,93,0.00,,,0.00,,2013-07-24 06:34:00,
2013-07-24 02:53:00,65.0,63.0,29.91,NE,45,4.0,7.0,93,0.00,,,0.00,,2013-07-24 06:53:00,
2013-07-24 03:02:00,65.0,63.0,29.91,NE,39,3.0,6.0,94,0.00,,,0.00,,2013-07-24 07:02:00,
2013-07-24 03:12:00,65.0,63.0,29.91,NNW,334,3.0,7.0,94,0.00,,,0.00,,2013-07-24 07:12:00,
2013-07-24 03:22:00,65.0,63.0,29.91,NNW,334,3.0,7.0,94,0.00,,,0.00,,2013-07-24 07:22:00,
2013-07-24 03:32:00,64.0,62.0,29.91,NNE,22,3.0,6.0,94,0.00,,,0.00,,2013-07-24 07:32:00,
2013-07-24 03:53:00,64.0,63.0,29.90,NE,34,4.0,8.0,95,0.00,,,0.00,,2013-07-24 07:53:00,
2013-07-24 04:02:00,64.0,63.0,29.90,NE,50,4.0,6.0,96,0.00,,,0.00,,2013-07-24 08:02:00,
2013-07-24 04:12:00,64.0,63.0,29.90,NNE,23,4.0,6.0,96,0.00,,,0.00,,2013-07-24 08:12:00,
2013-07-24 04:22:00,64.0,63.0,29.90,NNE,23,4.0,6.0,96,0.00,,,0.00,,2013-07-24 08:22:00,
2013-07-24 04:32:00,64.0,63.0,29.90,NNE,15,3.0,5.0,96,0.00,,,0.00,,2013-07-24 08:32:00,
2013-07-24 04:43:00,64.0,63.0,29.90,NE,36,3.0,6.0,96,0.00,,,0.00,,2013-07-24 08:43:00,
2013-07-24 04:52:00,64.0,63.0,29.90,NE,36,3.0,6.0,96,0.00,,,0.00,,2013-07-24 08:52:00,
2013-07-24 05:02:00,64.0,63.0,29.89,NE,36,4.0,6.0,96,0.00,,,0.00,,2013-07-24 09:02:00,
2013-07-24 05:12:00,64.0,63.0,29.89,NE,36,4.0,6.0,96,0.00,,,0.00,,2013-07-24 09:12:00,
2013-07-24 05:32:00,64.0,63.0,29.88,North,6,4.0,9.0,95,0.00,,,0.00,,2013-07-24 09:32:00,
2013-07-24 05:43:00,64.0,63.0,29.89,North,8,4.0,5.0,96,0.00,,,0.00,,2013-07-24 09:43:00,
2013-07-24 05:53:00,63.0,62.0,29.89,NNE,13,4.0,6.0,96,0.00,,,0.00,,2013-07-24 09:53:00,
2013-07-24 06:02:00,63.0,62.0,29.91,NW,312,4.0,8.0,96,0.00,,,0.00,,2013-07-24 10:02:00,
2013-07-24 06:12:00,63.0,62.0,29.91,NW,312,4.0,8.0,96,0.00,,,0.00,,2013-07-24 10:12:00,
2013-07-24 06:33:00,63.0,62.0,29.91,NNE,30,5.0,7.0,96,0.00,,,0.00,,2013-07-24 10:33:00,
2013-07-24 06:43:00,64.0,63.0,29.91,NE,41,4.0,6.0,95,0.00,,,0.00,,2013-07-24 10:43:00,
2013-07-24 06:53:00,64.0,63.0,29.92,NE,43,4.0,7.0,95,0.00,,,0.00,,2013-07-24 10:53:00,
2013-07-24 07:02:00,64.0,63.0,29.92,NE,43,4.0,7.0,95,0.00,,,0.00,,2013-07-24 11:02:00,
2013-07-24 07:12:00,64.0,63.0,29.92,NNE,30,3.0,7.0,95,0.00,,,0.00,,2013-07-24 11:12:00,
2013-07-24 07:22:00,64.0,63.0,29.93,NNW,336,2.0,7.0,95,0.00,,,0.00,,2013-07-24 11:22:00,
2013-07-24 07:43:00,63.0,62.0,29.93,NNE,22,4.0,7.0,96,0.00,,,0.00,,2013-07-24 11:43:00,
2013-07-24 08:02:00,64.0,63.0,29.93,NE,37,5.0,7.0,95,0.00,,,0.00,,2013-07-24 12:02:00,
2013-07-24 08:12:00,64.0,62.0,29.93,NNE,30,4.0,8.0,94,0.00,,,0.00,,2013-07-24 12:12:00,
2013-07-24 08:32:00,64.0,62.0,29.93,NNE,17,2.0,7.0,94,0.00,,,0.00,,2013-07-24 12:32:00,
2013-07-24 08:42:00,65.0,63.0,29.94,NNE,19,4.0,7.0,94,0.00,,,0.00,,2013-07-24 12:42:00,
2013-07-24 08:52:00,65.0,63.0,29.94,ENE,77,4.0,8.0,93,0.00,,,0.00,,2013-07-24 12:52:00,
2013-07-24 09:02:00,65.0,63.0,29.94,ENE,77,4.0,8.0,93,0.00,,,0.00,,2013-07-24 13:02:00,
2013-07-24 09:12:00,66.0,64.0,29.94,North,4,3.0,7.0,93,0.00,,,0.00,,2013-07-24 13:12:00,
2013-07-24 09:32:00,65.0,63.0,29.94,North,350,3.0,6.0,93,0.00,,,0.00,,2013-07-24 13:32:00,
2013-07-24 09:43:00,66.0,64.0,29.93,NNE,23,3.0,6.0,92,0.00,,,0.00,,2013-07-24 13:43:00,
2013-07-24 09:53:00,67.0,63.0,29.94,North,359,5.0,10.0,88,0.00,,,0.00,,2013-07-24 13:53:00,
2013-07-24 10:02:00,67.0,63.0,29.93,NNW,338,4.0,8.0,87,0.00,,,0.00,,2013-07-24 14:02:00,
2013-07-24 10:12:00,67.0,63.0,29.93,NNW,338,4.0,8.0,87,0.00,,,0.00,,2013-07-24 14:12:00,
2013-07-24 10:22:00,68.0,63.0,29.93,NNW,338,1.0,6.0,85,0.00,,,0.00,,2013-07-24 14:22:00,
2013-07-24 10:32:00,70.0,65.0,29.94,NNW,345,0.0,3.0,84,0.00,,,0.00,,2013-07-24 14:32:00,
2013-07-24 10:43:00,70.0,65.0,29.94,NNW,345,0.0,3.0,84,0.00,,,0.00,,2013-07-24 14:43:00,
2013-07-24 10:55:00,70.0,64.0,29.94,North,1,0.0,3.0,80,0.00,,,0.00,,2013-07-24 14:55:00,
2013-07-24 11:02:00,71.0,64.0,29.94,NNE,25,1.0,3.0,78,0.00,,,0.00,,2013-07-24 15:02:00,
2013-07-24 11:12:00,71.0,64.0,29.94,NNE,25,1.0,3.0,78,0.00,,,0.00,,2013-07-24 15:12:00,
2013-07-24 11:22:00,72.0,64.0,29.94,WNW,302,1.0,4.0,76,0.00,,,0.00,,2013-07-24 15:22:00,
2013-07-24 11:33:00,73.0,63.0,29.94,NE,46,2.0,4.0,72,0.00,,,0.00,,2013-07-24 15:33:00,
2013-07-24 11:43:00,73.0,63.0,29.94,NE,46,2.0,4.0,72,0.00,,,0.00,,2013-07-24 15:43:00,
2013-07-24 11:53:00,73.0,63.0,29.95,NNW,329,1.0,3.0,71,0.00,,,0.00,,2013-07-24 15:53:00,
2013-07-24 12:02:00,75.0,65.0,29.95,NW,321,1.0,4.0,72,0.00,,,0.00,,2013-07-24 16:02:00,
2013-07-24 12:12:00,75.0,65.0,29.95,NW,321,1.0,4.0,72,0.00,,,0.00,,2013-07-24 16:12:00,
2013-07-24 12:22:00,76.0,65.0,29.94,NE,36,0.0,2.0,68,0.00,,,0.00,,2013-07-24 16:22:00,
2013-07-24 12:32:00,77.0,66.0,29.95,NNW,330,0.0,3.0,68,0.00,,,0.00,,2013-07-24 16:32:00,
2013-07-24 12:43:00,77.0,66.0,29.95,NNW,330,0.0,3.0,68,0.00,,,0.00,,2013-07-24 16:43:00,
2013-07-24 12:53:00,79.0,65.0,29.95,NNW,337,0.0,2.0,63,0.00,,,0.00,,2013-07-24 16:53:00,
2013-07-24 13:02:00,80.0,65.0,29.95,NW,308,0.0,2.0,60,0.00,,,0.00,,2013-07-24 17:02:00,
2013-07-24 13:12:00,80.0,65.0,29.95,NW,308,0.0,2.0,60,0.00,,,0.00,,2013-07-24 17:12:00,
2013-07-24 13:22:00,77.0,65.0,29.94,WNW,298,0.0,2.0,67,0.00,,,0.00,,2013-07-24 17:22:00,
2013-07-24 13:33:00,78.0,66.0,29.94,NNW,345,0.0,3.0,67,0.00,,,0.00,,2013-07-24 17:33:00,
2013-07-24 13:43:00,78.0,66.0,29.94,NNW,345,0.0,3.0,67,0.00,,,0.00,,2013-07-24 17:43:00,
2013-07-24 13:53:00,78.0,67.0,29.94,WSW,240,2.0,3.0,69,0.00,,,0.00,,2013-07-24 17:53:00,
2013-07-24 14:02:00,77.0,65.0,29.93,WNW,287,1.0,3.0,67,0.00,,,0.00,,2013-07-24 18:02:00,
2013-07-24 14:12:00,77.0,65.0,29.93,WNW,287,1.0,3.0,67,0.00,,,0.00,,2013-07-24 18:12:00,
2013-07-24 14:22:00,77.0,65.0,29.93,ENE,72,0.0,1.0,66,0.00,,,0.00,,2013-07-24 18:22:00,
2013-07-24 14:33:00,76.0,67.0,29.92,East,94,1.0,6.0,75,0.00,,,0.00,,2013-07-24 18:33:00,
2013-07-24 14:43:00,76.0,67.0,29.92,East,94,1.0,6.0,75,0.00,,,0.00,,2013-07-24 18:43:00,
2013-07-24 14:52:00,75.0,68.0,29.91,NE,44,0.0,4.0,80,0.00,,,0.00,,2013-07-24 18:52:00,
2013-07-24 15:02:00,75.0,68.0,29.91,NE,44,0.0,4.0,80,0.00,,,0.00,,2013-07-24 19:02:00,
2013-07-24 15:12:00,73.0,67.0,29.91,NW,326,0.0,6.0,81,0.00,,,0.00,,2013-07-24 19:12:00,
2013-07-24 15:32:00,72.0,67.0,29.91,WSW,246,5.0,11.0,85,0.00,,,0.00,,2013-07-24 19:32:00,
2013-07-24 15:43:00,71.0,67.0,29.92,SW,229,0.0,3.0,87,0.00,,,0.00,,2013-07-24 19:43:00,
2013-07-24 16:13:00,70.0,66.0,29.92,WNW,298,0.0,1.0,87,0.00,,,0.00,,2013-07-24 20:13:00,
2013-07-24 16:23:00,69.0,64.0,29.92,SSW,193,0.0,4.0,84,0.00,,,0.00,,2013-07-24 20:23:00,
2013-07-24 16:32:00,69.0,66.0,29.92,WNW,293,3.0,4.0,89,0.00,,,0.00,,2013-07-24 20:32:00,
2013-07-24 16:43:00,69.0,66.0,29.92,WNW,293,3.0,4.0,89,0.00,,,0.00,,2013-07-24 20:43:00,
2013-07-24 16:53:00,69.0,63.0,29.92,NNE,16,1.0,4.0,82,0.00,,,0.00,,2013-07-24 20:53:00,
2013-07-24 17:22:00,68.0,65.0,29.91,SW,236,0.0,0.0,89,0.00,,,0.00,,2013-07-24 21:22:00,
2013-07-24 17:32:00,68.0,65.0,29.91,SW,236,0.0,0.0,89,0.00,,,0.00,,2013-07-24 21:32:00,
2013-07-24 17:44:00,68.0,64.0,29.91,West,280,0.0,1.0,88,0.00,,,0.00,,2013-07-24 21:44:00,
2013-07-24 17:53:00,68.0,65.0,29.91,NNW,339,0.0,1.0,90,0.00,,,0.00,,2013-07-24 21:53:00,
2013-07-24 18:02:00,68.0,65.0,29.91,NNW,339,0.0,1.0,90,0.00,,,0.00,,2013-07-24 22:02:00,
2013-07-24 18:12:00,67.0,64.0,29.91,NE,43,1.0,2.0,90,0.00,,,0.00,,2013-07-24 22:12:00,
2013-07-24 18:22:00,66.0,63.0,29.91,NE,34,3.0,4.0,89,0.01,,,0.01,,2013-07-24 22:22:00,
2013-07-24 18:32:00,66.0,63.0,29.91,NE,34,3.0,4.0,89,0.01,,,0.01,,2013-07-24 22:32:00,
2013-07-24 18:43:00,64.0,61.0,29.91,NE,43,3.0,4.0,89,0.02,,,0.02,,2013-07-24 22:43:00,
2013-07-24 19:22:00,64.0,61.0,29.92,NE,47,5.0,7.0,89,0.01,,,0.02,,2013-07-24 23:22:00,
2013-07-24 19:32:00,66.0,60.0,29.92,NE,54,0.0,4.0,80,0.00,,,0.02,,2013-07-24 23:32:00,
2013-07-24 19:43:00,66.0,60.0,29.92,NE,54,0.0,4.0,80,0.00,,,0.02,,2013-07-24 23:43:00,
2013-07-24 19:52:00,67.0,62.0,29.93,NE,44,2.0,3.0,84,0.00,,,0.02,,2013-07-24 23:52:00,
2013-07-24 20:02:00,67.0,62.0,29.93,NE,44,2.0,3.0,84,0.00,,,0.02,,2013-07-25 00:02:00,
2013-07-24 20:22:00,65.0,60.0,29.94,NNW,332,1.0,5.0,85,0.00,,,0.02,,2013-07-25 00:22:00,
2013-07-24 20:33:00,66.0,61.0,29.95,WNW,295,1.0,9.0,85,0.00,,,0.02,,2013-07-25 00:33:00,
2013-07-24 20:43:00,66.0,61.0,29.95,WNW,295,1.0,9.0,85,0.00,,,0.02,,2013-07-25 00:43:00,
2013-07-24 20:53:00,65.0,62.0,29.94,NW,305,0.0,6.0,89,0.02,,,0.04,,2013-07-25 00:53:00,
2013-07-24 21:02:00,65.0,62.0,29.95,WNW,300,0.0,4.0,90,0.02,,,0.04,,2013-07-25 01:02:00,
2013-07-24 21:12:00,65.0,62.0,29.95,WNW,300,0.0,4.0,90,0.02,,,0.04,,2013-07-25 01:12:00,
2013-07-24 21:22:00,65.0,62.0,29.95,NE,41,4.0,7.0,91,0.02,,,0.04,,2013-07-25 01:22:00,
2013-07-24 21:32:00,65.0,62.0,29.95,NE,41,4.0,7.0,91,0.02,,,0.04,,2013-07-25 01:32:00,
2013-07-24 21:43:00,64.0,62.0,29.95,NE,40,4.0,6.0,92,0.02,,,0.04,,2013-07-25 01:43:00,
2013-07-24 21:53:00,64.0,62.0,29.95,NE,40,4.0,6.0,92,0.02,,,0.04,,2013-07-25 01:53:00,
2013-07-24 22:12:00,64.0,60.0,29.94,NE,36,2.0,5.0,87,0.00,,,0.04,,2013-07-25 02:12:00,
2013-07-24 22:33:00,65.0,60.0,29.94,NE,41,2.0,4.0,85,0.00,,,0.04,,2013-07-25 02:33:00,
2013-07-24 22:43:00,64.0,60.0,29.95,NE,46,3.0,4.0,87,0.00,,,0.04,,2013-07-25 02:43:00,
2013-07-24 23:02:00,64.0,60.0,29.95,NE,43,3.0,4.0,88,0.00,,,0.04,,2013-07-25 03:02:00,
2013-07-24 23:16:00,64.0,60.0,29.95,NE,41,3.0,5.0,88,0.00,,,0.04,,2013-07-25 03:16:00,
2013-07-24 23:38:00,64.0,61.0,29.96,NE,36,4.0,5.0,89,0.00,,,0.04,,2013-07-25 03:38:00,
2013-07-24 23:44:00,63.0,59.0,29.96,NE,44,4.0,5.0,88,0.00,,,0.04,,2013-07-25 03:44:00,
2013-07-24 23:52:00,63.0,59.0,29.96,NNE,30,2.0,5.0,88,0.00,,,0.04,,2013-07-25 03:52:00,